Location: *
(18.5200°S, 46.4500°E)
Time: 23:04:30
(UTC+00:00)

Cosmos 1300 - Pass Details

Date: 19 July 2019
Orbit: 512 x 514 km, 82.5° (Epoch: 25 August)

Event Time Altitude Azimuth Distance (km) Brightness Sun altitude
Rises 16:08:31 0° 341° (NNW) 2,607 6.8 -21.8°
Reaches altitude 10° 16:10:44 10° 333° (NNW) 1,729 5.9 -22.3°
Maximum altitude 16:14:16 37° 264° (W) 807 4.1 -23.1°
Enters shadow 16:17:10 14° 199° (SSW) 1,495 5.0 -23.8°
